Location: Cruquius
(52.3348°N, 4.6319°E)
Time: 23:15:39
(UTC+00:00)

Cosmos 1340 Rocket - Pass Details

Date: 12 May 2021
Orbit: 527 x 559 km, 81.2° (Epoch: 24 June)

Event Time Altitude Azimuth Distance (km) Brightness Sun altitude
Rises 20:41:20 0° 355° (N) 2,763 7.3 -9.6°
Reaches altitude 10° 20:43:51 10° 9° (N) 1,861 6.1 -9.9°
Maximum altitude 20:47:16 25° 65° (ENE) 1,159 4.3 -10.2°
Enters shadow 20:50:07 13° 117° (ESE) 1,670 4.7 -10.5°
